Time,TemperatureF,DewpointF,PressureIn,WindDirection,WindDirectionDegrees,WindSpeedMPH,WindSpeedGustMPH,Humidity,HourlyPrecipIn,Conditions,Clouds,dailyrainin,SoftwareType,DateUTC
2013-01-16 00:04:00,14.9,-15.5,30.06,SSE,150,0.0,0.0,24,0.00,CLR,OVC,0.00,WeatherDisplay:10.37,2013-01-16 06:04:00,
2013-01-16 00:09:00,14.9,-15.5,30.06,SSE,150,0.0,0.0,24,0.00,CLR,OVC,0.00,WeatherDisplay:10.37,2013-01-16 06:09:00,
2013-01-16 00:14:00,14.9,-13.9,30.03,SSE,148,0.0,0.0,26,0.00,CLR,OVC,0.00,WeatherDisplay:10.37,2013-01-16 06:14:00,
2013-01-16 00:19:00,14.9,-13.9,30.03,SSE,151,0.0,0.0,26,0.00,CLR,OVC,0.00,WeatherDisplay:10.37,2013-01-16 06:19:00,
2013-01-16 00:24:00,15.1,-13.7,30.03,SSE,149,0.0,0.0,26,0.00,CLR,OVC,0.00,WeatherDisplay:10.37,2013-01-16 06:24:00,
2013-01-16 00:29:00,15.1,-13.7,30.03,South,184,0.0,0.0,26,0.00,CLR,OVC,0.00,WeatherDisplay:10.37,2013-01-16 06:29:00,
2013-01-16 00:34:00,14.9,-13.9,30.03,South,185,0.0,0.0,26,0.00,CLR,OVC,0.00,WeatherDisplay:10.37,2013-01-16 06:34:00,
2013-01-16 00:39:00,14.9,-13.9,30.03,South,184,0.0,0.0,26,0.00,CLR,OVC,0.00,WeatherDisplay:10.37,2013-01-16 06:39:00,
2013-01-16 00:44:00,14.7,-14.0,30.03,South,184,0.0,0.0,26,0.00,CLR,OVC,0.00,WeatherDisplay:10.37,2013-01-16 06:44:00,
2013-01-16 00:49:00,14.5,-15.8,30.03,South,172,0.0,0.0,24,0.00,CLR,OVC,0.00,WeatherDisplay:10.37,2013-01-16 06:49:00,
2013-01-16 00:54:00,14.5,-15.8,30.03,SSW,193,0.0,0.0,24,0.00,CLR,OVC,0.00,WeatherDisplay:10.37,2013-01-16 06:54:00,
2013-01-16 00:59:00,14.4,-14.3,30.03,South,173,0.0,0.0,26,0.00,CLR,OVC,0.00,WeatherDisplay:10.37,2013-01-16 06:59:00,
2013-01-16 01:04:00,14.5,-14.2,30.03,SSE,167,0.0,0.0,26,0.00,CLR,OVC,0.00,WeatherDisplay:10.37,2013-01-16 07:04:00,
2013-01-16 01:09:00,14.5,-14.2,30.03,South,173,0.0,0.0,26,0.00,CLR,OVC,0.00,WeatherDisplay:10.37,2013-01-16 07:09:00,
2013-01-16 01:14:00,14.9,-13.9,30.03,South,173,0.0,0.0,26,0.00,CLR,OVC,0.00,WeatherDisplay:10.37,2013-01-16 07:14:00,
2013-01-16 01:19:00,15.1,-13.7,30.03,South,185,0.0,0.0,26,0.00,CLR,OVC,0.00,WeatherDisplay:10.37,2013-01-16 07:19:00,
2013-01-16 01:24:00,15.1,-13.7,30.03,South,191,0.0,0.0,26,0.00,CLR,OVC,0.00,WeatherDisplay:10.37,2013-01-16 07:24:00,
2013-01-16 01:29:00,15.1,-13.7,30.00,South,179,0.0,0.0,26,0.00,CLR,OVC,0.00,WeatherDisplay:10.37,2013-01-16 07:29:00,
2013-01-16 01:34:00,15.3,-13.6,30.00,South,172,0.0,0.0,26,0.00,CLR,OVC,0.00,WeatherDisplay:10.37,2013-01-16 07:34:00,
2013-01-16 01:39:00,15.3,-13.6,30.00,South,169,0.0,0.0,26,0.00,CLR,OVC,0.00,WeatherDisplay:10.37,2013-01-16 07:39:00,
2013-01-16 01:44:00,15.3,-13.6,30.03,South,176,0.0,0.0,26,0.00,CLR,OVC,0.00,WeatherDisplay:10.37,2013-01-16 07:44:00,
2013-01-16 01:49:00,15.3,-13.6,30.03,South,190,0.0,0.0,26,0.00,CLR,OVC,0.00,WeatherDisplay:10.37,2013-01-16 07:49:00,
2013-01-16 01:54:00,15.3,-13.6,30.03,South,188,0.0,0.0,26,0.00,CLR,OVC,0.00,WeatherDisplay:10.37,2013-01-16 07:54:00,
2013-01-16 01:59:00,15.1,-13.7,30.00,South,190,0.0,0.0,26,0.00,CLR,OVC,0.00,WeatherDisplay:10.37,2013-01-16 07:59:00,
2013-01-16 02:04:00,15.1,-13.7,30.00,SSW,192,0.0,0.0,26,0.00,CLR,OVC,0.00,WeatherDisplay:10.37,2013-01-16 08:04:00,
2013-01-16 02:09:00,15.1,-13.7,30.00,South,190,0.0,0.0,26,0.00,CLR,OVC,0.00,WeatherDisplay:10.37,2013-01-16 08:09:00,
2013-01-16 02:14:00,14.9,-15.5,30.03,South,172,0.0,0.0,24,0.00,CLR,OVC,0.00,WeatherDisplay:10.37,2013-01-16 08:14:00,
2013-01-16 02:19:00,14.9,-15.5,30.03,South,171,2.3,0.0,24,0.00,CLR,OVC,0.00,WeatherDisplay:10.37,2013-01-16 08:19:00,
2013-01-16 02:24:00,14.9,-15.5,30.03,South,178,0.0,0.0,24,0.00,CLR,OVC,0.00,WeatherDisplay:10.37,2013-01-16 08:24:00,
2013-01-16 02:29:00,14.9,-15.5,30.00,South,174,0.0,0.0,24,0.00,CLR,OVC,0.00,WeatherDisplay:10.37,2013-01-16 08:29:00,
2013-01-16 02:34:00,14.9,-15.5,30.00,SSE,168,0.0,0.0,24,0.00,CLR,OVC,0.00,WeatherDisplay:10.37,2013-01-16 08:34:00,
2013-01-16 02:39:00,14.9,-15.5,30.00,South,169,0.0,0.0,24,0.00,CLR,OVC,0.00,WeatherDisplay:10.37,2013-01-16 08:39:00,
2013-01-16 02:44:00,14.9,-15.5,30.00,SSE,162,0.0,0.0,24,0.00,CLR,OVC,0.00,WeatherDisplay:10.37,2013-01-16 08:44:00,
2013-01-16 02:49:00,14.9,-15.5,30.00,SSE,163,0.0,0.0,24,0.00,CLR,OVC,0.00,WeatherDisplay:10.37,2013-01-16 08:49:00,
2013-01-16 02:54:00,14.9,-15.5,30.00,South,178,0.0,0.0,24,0.00,CLR,OVC,0.00,WeatherDisplay:10.37,2013-01-16 08:54:00,
2013-01-16 02:59:00,14.9,-15.5,30.00,South,172,0.0,0.0,24,0.00,CLR,OVC,0.00,WeatherDisplay:10.37,2013-01-16 08:59:00,
2013-01-16 03:04:00,14.9,-15.5,30.00,South,170,0.0,0.0,24,0.00,CLR,OVC,0.00,WeatherDisplay:10.37,2013-01-16 09:04:00,
2013-01-16 03:09:00,14.7,-15.6,30.00,SSE,166,0.0,0.0,24,0.00,CLR,OVC,0.00,WeatherDisplay:10.37,2013-01-16 09:09:00,
2013-01-16 03:14:00,14.7,-15.6,30.00,South,172,0.0,0.0,24,0.00,CLR,OVC,0.00,WeatherDisplay:10.37,2013-01-16 09:14:00,
2013-01-16 03:19:00,14.5,-15.8,30.00,SSE,167,0.0,0.0,24,0.00,CLR,OVC,0.00,WeatherDisplay:10.37,2013-01-16 09:19:00,
2013-01-16 03:24:00,14.5,-15.8,30.00,SSE,166,0.0,0.0,24,0.00,CLR,OVC,0.00,WeatherDisplay:10.37,2013-01-16 09:24:00,
2013-01-16 03:29:00,14.5,-15.8,30.00,South,170,0.0,0.0,24,0.00,CLR,OVC,0.00,WeatherDisplay:10.37,2013-01-16 09:29:00,
2013-01-16 03:34:00,14.5,-15.8,30.00,South,183,0.0,0.0,24,0.00,CLR,OVC,0.00,WeatherDisplay:10.37,2013-01-16 09:34:00,
2013-01-16 03:39:00,14.7,-15.6,30.00,SE,139,0.0,0.0,24,0.00,CLR,OVC,0.00,WeatherDisplay:10.37,2013-01-16 09:39:00,
2013-01-16 03:44:00,14.9,-15.5,29.97,SE,140,0.0,0.0,24,0.00,CLR,OVC,0.00,WeatherDisplay:10.37,2013-01-16 09:44:00,
2013-01-16 03:49:00,14.9,-15.5,29.97,South,181,0.0,0.0,24,0.00,CLR,OVC,0.00,WeatherDisplay:10.37,2013-01-16 09:49:00,
2013-01-16 03:54:00,15.1,-15.3,29.97,South,183,0.0,0.0,24,0.00,CLR,OVC,0.00,WeatherDisplay:10.37,2013-01-16 09:54:00,
2013-01-16 03:59:00,15.3,-15.2,29.97,South,191,0.0,0.0,24,0.00,CLR,OVC,0.00,WeatherDisplay:10.37,2013-01-16 09:59:00,
2013-01-16 04:04:00,15.4,-15.0,29.97,SW,216,0.0,0.0,24,0.00,CLR,OVC,0.00,WeatherDisplay:10.37,2013-01-16 10:04:00,
2013-01-16 04:09:00,15.4,-15.0,29.97,SW,225,0.0,0.0,24,0.00,CLR,OVC,0.00,WeatherDisplay:10.37,2013-01-16 10:09:00,
2013-01-16 04:14:00,15.8,-14.7,29.97,SW,218,0.0,0.0,24,0.00,CLR,OVC,0.00,WeatherDisplay:10.37,2013-01-16 10:14:00,
2013-01-16 04:19:00,15.8,-14.7,29.97,SW,229,0.0,0.0,24,0.00,CLR,OVC,0.00,WeatherDisplay:10.37,2013-01-16 10:19:00,
2013-01-16 04:24:00,15.8,-14.7,29.97,SW,221,0.0,0.0,24,0.00,CLR,OVC,0.00,WeatherDisplay:10.37,2013-01-16 10:24:00,
2013-01-16 04:29:00,15.8,-14.7,29.97,SW,227,0.0,0.0,24,0.00,CLR,OVC,0.00,WeatherDisplay:10.37,2013-01-16 10:29:00,
2013-01-16 04:34:00,15.8,-14.7,29.97,SW,218,0.0,0.0,24,0.00,CLR,OVC,0.00,WeatherDisplay:10.37,2013-01-16 10:34:00,
2013-01-16 04:39:00,15.8,-14.7,29.97,SSW,192,0.0,0.0,24,0.00,CLR,OVC,0.00,WeatherDisplay:10.37,2013-01-16 10:39:00,
2013-01-16 04:44:00,16.0,-15.4,29.94,SSW,208,3.5,0.0,23,0.00,CLR,OVC,0.00,WeatherDisplay:10.37,2013-01-16 10:44:00,
2013-01-16 04:49:00,16.2,-15.2,29.94,SSW,195,0.0,0.0,23,0.00,CLR,OVC,0.00,WeatherDisplay:10.37,2013-01-16 10:49:00,
2013-01-16 04:54:00,16.2,-15.2,29.94,SSE,150,3.5,0.0,23,0.00,CLR,OVC,0.00,WeatherDisplay:10.37,2013-01-16 10:54:00,
2013-01-16 04:59:00,16.3,-15.1,29.94,SSW,196,0.0,0.0,23,0.00,CLR,OVC,0.00,WeatherDisplay:10.37,2013-01-16 10:59:00,
2013-01-16 05:04:00,16.3,-15.1,29.94,SSW,206,3.5,0.0,23,0.00,CLR,OVC,0.00,WeatherDisplay:10.37,2013-01-16 11:04:00,
2013-01-16 05:09:00,16.2,-15.2,29.94,South,176,3.5,0.0,23,0.00,CLR,OVC,0.00,WeatherDisplay:10.37,2013-01-16 11:09:00,
2013-01-16 05:14:00,16.5,-14.9,29.94,SSW,195,2.3,0.0,23,0.00,CLR,OVC,0.00,WeatherDisplay:10.37,2013-01-16 11:14:00,
2013-01-16 05:19:00,16.5,-14.9,29.94,SSE,152,3.5,3.5,23,0.00,CLR,OVC,0.00,WeatherDisplay:10.37,2013-01-16 11:19:00,
2013-01-16 05:24:00,16.7,-14.8,29.94,SSW,204,2.3,0.0,23,0.00,CLR,OVC,0.00,WeatherDisplay:10.37,2013-01-16 11:24:00,
2013-01-16 05:29:00,16.9,-14.6,29.94,SSW,196,2.3,0.0,23,0.00,CLR,OVC,0.00,WeatherDisplay:10.37,2013-01-16 11:29:00,
2013-01-16 05:34:00,16.9,-14.6,29.94,South,185,2.3,0.0,23,0.00,CLR,OVC,0.00,WeatherDisplay:10.37,2013-01-16 11:34:00,
2013-01-16 05:39:00,16.9,-16.4,29.94,SSE,157,0.0,0.0,21,0.00,CLR,OVC,0.00,WeatherDisplay:10.37,2013-01-16 11:39:00,
2013-01-16 05:44:00,16.9,-16.4,29.94,SW,235,2.3,0.0,21,0.00,CLR,OVC,0.00,WeatherDisplay:10.37,2013-01-16 11:44:00,
2013-01-16 05:49:00,17.1,-16.2,29.94,WSW,244,3.5,0.0,21,0.00,CLR,OVC,0.00,WeatherDisplay:10.37,2013-01-16 11:49:00,
2013-01-16 05:55:00,17.1,-16.2,29.94,SW,235,0.0,0.0,21,0.00,CLR,OVC,0.00,WeatherDisplay:10.37,2013-01-16 11:55:00,
2013-01-16 06:00:00,17.1,-16.2,29.94,South,181,2.3,0.0,21,0.00,CLR,OVC,0.00,WeatherDisplay:10.37,2013-01-16 12:00:00,
2013-01-16 06:05:00,17.2,-16.1,29.94,SW,218,0.0,0.0,21,0.00,CLR,OVC,0.00,WeatherDisplay:10.37,2013-01-16 12:05:00,
2013-01-16 06:10:00,17.4,-15.9,29.94,SE,136,3.5,0.0,21,0.00,CLR,OVC,0.00,WeatherDisplay:10.37,2013-01-16 12:10:00,
2013-01-16 06:15:00,17.4,-15.9,29.91,SW,223,3.5,0.0,21,0.00,CLR,OVC,0.00,WeatherDisplay:10.37,2013-01-16 12:15:00,
2013-01-16 06:20:00,17.6,-15.8,29.91,South,175,2.3,0.0,21,0.00,CLR,OVC,0.00,WeatherDisplay:10.37,2013-01-16 12:20:00,
2013-01-16 06:25:00,17.6,-15.8,29.91,South,186,3.5,3.5,21,0.00,CLR,OVC,0.00,WeatherDisplay:10.37,2013-01-16 12:25:00,
2013-01-16 06:30:00,17.8,-16.6,29.91,SE,145,3.5,3.5,20,0.00,CLR,OVC,0.00,WeatherDisplay:10.37,2013-01-16 12:30:00,
2013-01-16 06:35:00,17.8,-16.6,29.91,SSE,168,3.5,3.5,20,0.00,CLR,OVC,0.00,WeatherDisplay:10.37,2013-01-16 12:35:00,
2013-01-16 06:40:00,18.1,-16.3,29.91,South,172,3.5,0.0,20,0.00,CLR,OVC,0.00,WeatherDisplay:10.37,2013-01-16 12:40:00,
2013-01-16 06:45:00,18.1,-16.3,29.91,South,175,3.5,0.0,20,0.00,CLR,OVC,0.00,WeatherDisplay:10.37,2013-01-16 12:45:00,
2013-01-16 06:50:00,18.1,-16.3,29.91,South,177,3.5,0.0,20,0.00,CLR,OVC,0.00,WeatherDisplay:10.37,2013-01-16 12:50:00,
2013-01-16 06:55:00,18.1,-16.3,29.91,South,170,3.5,3.5,20,0.00,CLR,OVC,0.00,WeatherDisplay:10.37,2013-01-16 12:55:00,
2013-01-16 07:00:00,18.3,-16.1,29.91,SSW,193,3.5,3.5,20,0.00,CLR,OVC,0.00,WeatherDisplay:10.37,2013-01-16 13:00:00,
2013-01-16 07:05:00,18.3,-16.1,29.91,South,173,3.5,0.0,20,0.00,CLR,OVC,0.00,WeatherDisplay:10.37,2013-01-16 13:05:00,
2013-01-16 07:10:00,18.3,-16.1,29.91,SW,215,3.5,0.0,20,0.00,CLR,OVC,0.00,WeatherDisplay:10.37,2013-01-16 13:10:00,
2013-01-16 07:15:00,18.5,-16.0,29.91,SSE,154,8.1,8.1,20,0.00,CLR,OVC,0.00,WeatherDisplay:10.37,2013-01-16 13:15:00,
2013-01-16 07:20:00,18.5,-16.0,29.91,South,178,2.3,0.0,20,0.00,CLR,OVC,0.00,WeatherDisplay:10.37,2013-01-16 13:20:00,
2013-01-16 07:25:00,18.5,-16.0,29.91,SSE,148,0.0,0.0,20,0.00,CLR,OVC,0.00,WeatherDisplay:10.37,2013-01-16 13:25:00,
2013-01-16 07:30:00,18.5,-16.0,29.91,South,187,0.0,0.0,20,0.00,CLR,OVC,0.00,WeatherDisplay:10.37,2013-01-16 13:30:00,
2013-01-16 07:35:00,18.5,-16.0,29.91,SW,229,3.5,0.0,20,0.00,CLR,OVC,0.00,WeatherDisplay:10.37,2013-01-16 13:35:00,
2013-01-16 07:40:00,18.7,-15.8,29.91,SW,231,2.3,0.0,20,0.00,CLR,OVC,0.00,WeatherDisplay:10.37,2013-01-16 13:40:00,
2013-01-16 07:45:00,18.7,-15.8,29.91,South,169,3.5,0.0,20,0.00,CLR,OVC,0.00,WeatherDisplay:10.37,2013-01-16 13:45:00,
2013-01-16 07:50:00,19.0,-15.5,29.91,SSE,149,3.5,0.0,20,0.00,CLR,OVC,0.00,WeatherDisplay:10.37,2013-01-16 13:50:00,
2013-01-16 07:55:00,19.4,-15.2,29.91,South,190,4.6,0.0,20,0.00,CLR,OVC,0.00,WeatherDisplay:10.37,2013-01-16 13:55:00,
2013-01-16 08:00:00,19.8,-14.9,29.91,SSW,199,3.5,0.0,20,0.00,CLR,OVC,0.00,WeatherDisplay:10.37,2013-01-16 14:00:00,
2013-01-16 08:05:00,20.1,-14.6,29.91,SSW,203,5.8,0.0,20,0.00,CLR,OVC,0.00,WeatherDisplay:10.37,2013-01-16 14:05:00,
2013-01-16 08:10:00,20.3,-14.5,29.91,SW,218,5.8,5.8,20,0.00,CLR,OVC,0.00,WeatherDisplay:10.37,2013-01-16 14:10:00,
2013-01-16 08:15:00,20.5,-17.5,29.91,SSE,164,4.6,4.6,17,0.00,CLR,OVC,0.00,WeatherDisplay:10.37,2013-01-16 14:15:00,
2013-01-16 08:20:00,20.7,-17.4,29.91,SW,217,2.3,0.0,17,0.00,CLR,OVC,0.00,WeatherDisplay:10.37,2013-01-16 14:20:00,
2013-01-16 08:25:00,20.8,-17.2,29.91,SSE,164,3.5,0.0,17,0.00,CLR,OVC,0.00,WeatherDisplay:10.37,2013-01-16 14:25:00,
2013-01-16 08:30:00,21.0,-17.1,29.91,South,184,0.0,0.0,17,0.00,CLR,OVC,0.00,WeatherDisplay:10.37,2013-01-16 14:30:00,
2013-01-16 08:35:00,21.4,-16.8,29.91,SSW,206,3.5,3.5,17,0.00,CLR,OVC,0.00,WeatherDisplay:10.37,2013-01-16 14:35:00,
2013-01-16 08:40:00,21.7,-16.5,29.91,SW,232,5.8,0.0,17,0.00,CLR,OVC,0.00,WeatherDisplay:10.37,2013-01-16 14:40:00,
2013-01-16 08:45:00,21.9,-16.3,29.91,WSW,238,4.6,4.6,17,0.00,CLR,OVC,0.00,WeatherDisplay:10.37,2013-01-16 14:45:00,
2013-01-16 08:50:00,22.3,-16.0,29.91,SE,131,2.3,0.0,17,0.00,CLR,OVC,0.00,WeatherDisplay:10.37,2013-01-16 14:50:00,
2013-01-16 08:55:00,22.6,-15.7,29.91,SW,220,3.5,0.0,17,0.00,CLR,OVC,0.00,WeatherDisplay:10.37,2013-01-16 14:55:00,
2013-01-16 09:00:00,22.8,-15.6,29.91,SSE,166,3.5,0.0,17,0.00,CLR,OVC,0.00,WeatherDisplay:10.37,2013-01-16 15:00:00,
2013-01-16 09:05:00,23.0,-15.4,29.91,SW,223,5.8,5.8,17,0.00,CLR,OVC,0.00,WeatherDisplay:10.37,2013-01-16 15:05:00,
2013-01-16 09:10:00,23.4,-15.1,29.91,SSE,153,9.2,9.2,17,0.00,CLR,OVC,0.00,WeatherDisplay:10.37,2013-01-16 15:10:00,
2013-01-16 09:15:00,23.5,-15.0,29.91,South,174,8.1,8.1,17,0.00,CLR,OVC,0.00,WeatherDisplay:10.37,2013-01-16 15:15:00,
2013-01-16 09:20:00,23.7,-14.8,29.91,SW,231,3.5,0.0,17,0.00,CLR,OVC,0.00,WeatherDisplay:10.37,2013-01-16 15:20:00,
2013-01-16 09:25:00,24.1,-14.5,29.91,SW,226,0.0,0.0,17,0.00,CLR,OVC,0.00,WeatherDisplay:10.37,2013-01-16 15:25:00,
2013-01-16 09:30:00,24.3,-14.4,29.88,SW,230,5.8,5.8,17,0.00,CLR,OVC,0.00,WeatherDisplay:10.37,2013-01-16 15:30:00,
2013-01-16 09:35:00,24.4,-14.2,29.88,SW,226,2.3,0.0,17,0.00,CLR,OVC,0.00,WeatherDisplay:10.37,2013-01-16 15:35:00,
2013-01-16 09:40:00,24.6,-14.1,29.88,SSE,168,5.8,5.8,17,0.00,CLR,OVC,0.00,WeatherDisplay:10.37,2013-01-16 15:40:00,
2013-01-16 09:45:00,25.0,-15.0,29.88,South,187,3.5,0.0,16,0.00,CLR,OVC,0.00,WeatherDisplay:10.37,2013-01-16 15:45:00,
2013-01-16 09:50:00,25.5,-14.6,29.88,SSW,202,5.8,5.8,16,0.00,CLR,OVC,0.00,WeatherDisplay:10.37,2013-01-16 15:50:00,
2013-01-16 09:55:00,25.9,-14.3,29.88,SW,214,5.8,5.8,16,0.00,CLR,OVC,0.00,WeatherDisplay:10.37,2013-01-16 15:55:00,
2013-01-16 10:00:00,26.2,-14.0,29.88,SSE,152,4.6,4.6,16,0.00,CLR,OVC,0.00,WeatherDisplay:10.37,2013-01-16 16:00:00,
2013-01-16 10:05:00,26.6,-13.7,29.88,WSW,250,8.1,8.1,16,0.00,CLR,OVC,0.00,WeatherDisplay:10.37,2013-01-16 16:05:00,
2013-01-16 10:10:00,27.1,-13.2,29.88,SSW,200,5.8,5.8,16,0.00,CLR,OVC,0.00,WeatherDisplay:10.37,2013-01-16 16:10:00,
2013-01-16 10:15:00,27.7,-12.8,29.88,SSE,156,5.8,5.8,16,0.00,CLR,OVC,0.00,WeatherDisplay:10.37,2013-01-16 16:15:00,
2013-01-16 10:20:00,28.0,-12.5,29.88,SW,220,6.9,0.0,16,0.00,CLR,OVC,0.00,WeatherDisplay:10.37,2013-01-16 16:20:00,
2013-01-16 10:25:00,28.6,-13.3,29.88,West,271,4.6,0.0,15,0.00,CLR,OVC,0.00,WeatherDisplay:10.37,2013-01-16 16:25:00,
2013-01-16 10:30:00,28.9,-13.0,29.88,SSW,212,6.9,6.9,15,0.00,CLR,OVC,0.00,WeatherDisplay:10.37,2013-01-16 16:30:00,
2013-01-16 10:35:00,29.5,-12.6,29.88,SW,223,5.8,5.8,15,0.00,CLR,OVC,0.00,WeatherDisplay:10.37,2013-01-16 16:35:00,
2013-01-16 10:40:00,29.8,-12.3,29.88,SE,140,9.2,9.2,15,0.00,CLR,OVC,0.00,WeatherDisplay:10.37,2013-01-16 16:40:00,
2013-01-16 10:45:00,30.2,-12.0,29.85,SSW,203,3.5,0.0,15,0.00,CLR,OVC,0.00,WeatherDisplay:10.37,2013-01-16 16:45:00,
2013-01-16 10:50:00,30.6,-11.7,29.85,WSW,244,5.8,5.8,15,0.00,CLR,OVC,0.00,WeatherDisplay:10.37,2013-01-16 16:50:00,
2013-01-16 10:55:00,30.7,-11.6,29.85,SSW,208,5.8,5.8,15,0.00,CLR,OVC,0.00,WeatherDisplay:10.37,2013-01-16 16:55:00,
2013-01-16 11:00:00,31.1,-11.3,29.85,SSE,168,5.8,5.8,15,0.00,CLR,OVC,0.00,WeatherDisplay:10.37,2013-01-16 17:00:00,
2013-01-16 11:05:00,31.5,-11.0,29.85,South,171,3.5,3.5,15,0.00,CLR,OVC,0.00,WeatherDisplay:10.37,2013-01-16 17:05:00,
2013-01-16 11:10:00,32.4,-10.2,29.85,SSE,165,4.6,0.0,15,0.00,CLR,OVC,0.00,WeatherDisplay:10.37,2013-01-16 17:10:00,
2013-01-16 11:15:00,32.5,-10.1,29.85,South,189,11.5,11.5,15,0.00,CLR,OVC,0.00,WeatherDisplay:10.37,2013-01-16 17:15:00,
2013-01-16 11:20:00,32.2,-10.4,29.85,SW,221,5.8,5.8,15,0.00,FEW,OVC,0.00,WeatherDisplay:10.37,2013-01-16 17:20:00,
2013-01-16 11:25:00,32.2,-10.4,29.85,SSW,212,8.1,8.1,15,0.00,FEW,OVC,0.00,WeatherDisplay:10.37,2013-01-16 17:25:00,
2013-01-16 11:30:00,32.2,-10.4,29.85,WSW,241,5.8,5.8,15,0.00,FEW,OVC,0.00,WeatherDisplay:10.37,2013-01-16 17:30:00,
2013-01-16 11:35:00,32.2,-10.4,29.85,WSW,256,5.8,5.8,15,0.00,FEW,OVC,0.00,WeatherDisplay:10.37,2013-01-16 17:35:00,
2013-01-16 11:40:00,32.2,-10.4,29.85,SSW,210,2.3,0.0,15,0.00,FEW,OVC,0.00,WeatherDisplay:10.37,2013-01-16 17:40:00,
2013-01-16 11:45:00,32.2,-10.4,29.82,SSW,193,5.8,5.8,15,0.00,FEW,OVC,0.00,WeatherDisplay:10.37,2013-01-16 17:45:00,
2013-01-16 11:50:00,32.2,-10.4,29.82,SSE,153,8.1,0.0,15,0.00,FEW,OVC,0.00,WeatherDisplay:10.37,2013-01-16 17:50:00,
2013-01-16 11:55:00,32.5,-10.1,29.82,SSW,210,6.9,6.9,15,0.00,FEW,OVC,0.00,WeatherDisplay:10.37,2013-01-16 17:55:00,
2013-01-16 12:00:00,33.1,-9.7,29.82,South,177,5.8,0.0,15,0.00,FEW,OVC,0.00,WeatherDisplay:10.37,2013-01-16 18:00:00,
2013-01-16 12:05:00,33.4,-9.4,29.82,South,179,5.8,5.8,15,0.00,BKN,OVC,0.00,WeatherDisplay:10.37,2013-01-16 18:05:00,
2013-01-16 12:10:00,33.8,-9.1,29.82,SE,142,3.5,0.0,15,0.00,BKN,OVC,0.00,WeatherDisplay:10.37,2013-01-16 18:10:00,
2013-01-16 12:15:00,34.0,-8.9,29.82,ESE,105,3.5,3.5,15,0.00,BKN,OVC,0.00,WeatherDisplay:10.37,2013-01-16 18:15:00,
2013-01-16 12:20:00,34.3,-8.6,29.82,SSE,166,5.8,5.8,15,0.00,BKN,OVC,0.00,WeatherDisplay:10.37,2013-01-16 18:20:00,
2013-01-16 12:25:00,34.5,-8.5,29.82,SSW,213,8.1,8.1,15,0.00,BKN,OVC,0.00,WeatherDisplay:10.37,2013-01-16 18:25:00,
2013-01-16 12:30:00,34.5,-8.5,29.82,WSW,253,5.8,5.8,15,0.00,BKN,OVC,0.00,WeatherDisplay:10.37,2013-01-16 18:30:00,
2013-01-16 12:35:00,34.7,-8.3,29.82,SW,232,9.2,9.2,15,0.00,BKN,OVC,0.00,WeatherDisplay:10.37,2013-01-16 18:35:00,
2013-01-16 12:40:00,35.1,-8.0,29.79,SSE,155,3.5,0.0,15,0.00,BKN,OVC,0.00,WeatherDisplay:10.37,2013-01-16 18:40:00,
2013-01-16 12:45:00,35.6,-9.0,29.79,NW,307,5.8,5.8,14,0.00,BKN,OVC,0.00,WeatherDisplay:10.37,2013-01-16 18:45:00,
2013-01-16 12:50:00,36.0,-8.7,29.79,SSW,200,8.1,8.1,14,0.00,BKN,OVC,0.00,WeatherDisplay:10.37,2013-01-16 18:50:00,
2013-01-16 12:55:00,35.8,-8.9,29.82,SW,225,3.5,0.0,14,0.00,BKN,OVC,0.00,WeatherDisplay:10.37,2013-01-16 18:55:00,
2013-01-16 13:01:00,35.8,-8.9,29.82,West,273,5.8,5.8,14,0.00,BKN,OVC,0.00,WeatherDisplay:10.37,2013-01-16 19:01:00,
2013-01-16 13:06:00,35.6,-9.0,29.82,SSW,208,3.5,3.5,14,0.00,OVC,,0.00,WeatherDisplay:10.37,2013-01-16 19:06:00,
2013-01-16 13:11:00,35.6,-9.0,29.82,SW,225,8.1,8.1,14,0.00,OVC,,0.00,WeatherDisplay:10.37,2013-01-16 19:11:00,
2013-01-16 13:16:00,35.8,-8.9,29.82,South,170,3.5,0.0,14,0.00,OVC,,0.00,WeatherDisplay:10.37,2013-01-16 19:16:00,
2013-01-16 13:21:00,36.1,-8.6,29.82,WSW,240,3.5,3.5,14,0.00,OVC,,0.00,WeatherDisplay:10.37,2013-01-16 19:21:00,
2013-01-16 13:26:00,36.1,-8.6,29.82,WSW,245,5.8,5.8,14,0.00,OVC,,0.00,WeatherDisplay:10.37,2013-01-16 19:26:00,
2013-01-16 13:31:00,36.1,-8.6,29.82,WSW,258,4.6,4.6,14,0.00,OVC,,0.00,WeatherDisplay:10.37,2013-01-16 19:31:00,
2013-01-16 13:36:00,36.1,-8.6,29.82,WSW,238,0.0,0.0,14,0.00,OVC,,0.00,WeatherDisplay:10.37,2013-01-16 19:36:00,
2013-01-16 13:41:00,36.3,-8.4,29.82,SSW,212,5.8,5.8,14,0.00,OVC,,0.00,WeatherDisplay:10.37,2013-01-16 19:41:00,
2013-01-16 13:46:00,36.1,-8.6,29.82,SW,221,3.5,0.0,14,0.00,OVC,,0.00,WeatherDisplay:10.37,2013-01-16 19:46:00,
2013-01-16 13:51:00,36.1,-8.6,29.82,SW,227,0.0,0.0,14,0.00,OVC,,0.00,WeatherDisplay:10.37,2013-01-16 19:51:00,
2013-01-16 13:56:00,36.1,-8.6,29.82,West,260,8.1,8.1,14,0.00,OVC,,0.00,WeatherDisplay:10.37,2013-01-16 19:56:00,
2013-01-16 14:01:00,36.3,-8.4,29.82,SSE,147,3.5,3.5,14,0.00,OVC,,0.00,WeatherDisplay:10.37,2013-01-16 20:01:00,
2013-01-16 14:06:00,36.3,-8.4,29.82,ESE,107,0.0,0.0,14,0.00,OVC,,0.00,WeatherDisplay:10.37,2013-01-16 20:06:00,
2013-01-16 14:11:00,36.3,-8.4,29.82,SW,220,3.5,3.5,14,0.00,OVC,,0.00,WeatherDisplay:10.37,2013-01-16 20:11:00,
2013-01-16 14:16:00,36.5,-8.3,29.82,West,269,0.0,0.0,14,0.00,OVC,,0.00,WeatherDisplay:10.37,2013-01-16 20:16:00,
2013-01-16 14:21:00,36.5,-8.3,29.82,SW,225,0.0,0.0,14,0.00,OVC,,0.00,WeatherDisplay:10.37,2013-01-16 20:21:00,
2013-01-16 14:26:00,36.3,-8.4,29.82,SSE,166,0.0,0.0,14,0.00,OVC,,0.00,WeatherDisplay:10.37,2013-01-16 20:26:00,
2013-01-16 14:31:00,36.3,-8.4,29.82,SW,231,3.5,0.0,14,0.00,OVC,,0.00,WeatherDisplay:10.37,2013-01-16 20:31:00,
2013-01-16 14:36:00,36.3,-8.4,29.82,SW,230,0.0,0.0,14,0.00,OVC,,0.00,WeatherDisplay:10.37,2013-01-16 20:36:00,
2013-01-16 14:41:00,36.3,-4.4,29.82,SW,231,0.0,0.0,17,0.00,OVC,,0.00,WeatherDisplay:10.37,2013-01-16 20:41:00,
2013-01-16 14:46:00,36.3,-4.4,29.82,SW,232,0.0,0.0,17,0.00,OVC,,0.00,WeatherDisplay:10.37,2013-01-16 20:46:00,
2013-01-16 14:51:00,36.5,-4.3,29.82,SSW,196,0.0,0.0,17,0.00,OVC,,0.00,WeatherDisplay:10.37,2013-01-16 20:51:00,
2013-01-16 14:56:00,36.7,-4.1,29.82,SW,226,4.6,4.6,17,0.00,OVC,,0.00,WeatherDisplay:10.37,2013-01-16 20:56:00,
2013-01-16 15:01:00,36.7,-4.1,29.82,SSW,209,8.1,8.1,17,0.00,OVC,,0.00,WeatherDisplay:10.37,2013-01-16 21:01:00,
2013-01-16 15:06:00,36.7,-4.1,29.82,SSW,211,0.0,0.0,17,0.00,OVC,,0.00,WeatherDisplay:10.37,2013-01-16 21:06:00,
2013-01-16 15:11:00,36.9,-4.0,29.85,SW,222,5.8,5.8,17,0.00,OVC,,0.00,WeatherDisplay:10.37,2013-01-16 21:11:00,
2013-01-16 15:16:00,36.9,-4.0,29.85,South,172,0.0,0.0,17,0.00,OVC,,0.00,WeatherDisplay:10.37,2013-01-16 21:16:00,
2013-01-16 15:21:00,37.0,-3.8,29.85,SE,131,3.5,0.0,17,0.00,OVC,,0.00,WeatherDisplay:10.37,2013-01-16 21:21:00,
2013-01-16 15:26:00,37.0,-3.8,29.85,South,171,0.0,0.0,17,0.00,OVC,,0.00,WeatherDisplay:10.37,2013-01-16 21:26:00,
2013-01-16 15:31:00,37.0,-3.8,29.82,West,276,2.3,0.0,17,0.00,OVC,,0.00,WeatherDisplay:10.37,2013-01-16 21:31:00,
2013-01-16 15:36:00,36.9,-4.0,29.82,South,170,2.3,0.0,17,0.00,OVC,,0.00,WeatherDisplay:10.37,2013-01-16 21:36:00,
2013-01-16 15:41:00,36.9,-4.0,29.85,SW,233,2.3,0.0,17,0.00,OVC,,0.00,WeatherDisplay:10.37,2013-01-16 21:41:00,
2013-01-16 15:46:00,36.9,-4.0,29.85,SW,222,2.3,0.0,17,0.00,OVC,,0.00,WeatherDisplay:10.37,2013-01-16 21:46:00,
2013-01-16 15:51:00,36.9,-4.0,29.85,WSW,237,3.5,0.0,17,0.00,OVC,,0.00,WeatherDisplay:10.37,2013-01-16 21:51:00,
2013-01-16 15:56:00,36.9,-4.0,29.85,SSE,155,3.1,0.0,17,0.00,OVC,,0.00,WeatherDisplay:10.37,2013-01-16 21:56:00,
2013-01-16 16:01:00,36.9,-4.0,29.85,SE,146,3.5,0.0,17,0.00,OVC,,0.00,WeatherDisplay:10.37,2013-01-16 22:01:00,
2013-01-16 16:06:00,36.9,-4.0,29.85,SW,220,2.3,0.0,17,0.00,OVC,,0.00,WeatherDisplay:10.37,2013-01-16 22:06:00,
2013-01-16 16:11:00,36.9,-4.0,29.88,SW,231,0.0,0.0,17,0.00,OVC,,0.00,WeatherDisplay:10.37,2013-01-16 22:11:00,
2013-01-16 16:16:00,36.7,-4.1,29.88,SW,230,0.0,0.0,17,0.00,OVC,,0.00,WeatherDisplay:10.37,2013-01-16 22:16:00,
2013-01-16 16:21:00,36.7,-4.1,29.88,SSW,211,0.0,0.0,17,0.00,OVC,,0.00,WeatherDisplay:10.37,2013-01-16 22:21:00,
2013-01-16 16:26:00,36.5,-4.3,29.88,SW,235,0.0,0.0,17,0.00,OVC,,0.00,WeatherDisplay:10.37,2013-01-16 22:26:00,
2013-01-16 16:31:00,36.5,-4.3,29.88,WSW,244,0.0,0.0,17,0.00,OVC,,0.00,WeatherDisplay:10.37,2013-01-16 22:31:00,
2013-01-16 16:36:00,36.3,-4.4,29.88,SW,223,0.0,0.0,17,0.00,OVC,,0.00,WeatherDisplay:10.37,2013-01-16 22:36:00,
2013-01-16 16:41:00,36.3,-4.4,29.88,SW,226,0.0,0.0,17,0.00,OVC,,0.00,WeatherDisplay:10.37,2013-01-16 22:41:00,
2013-01-16 16:46:00,36.1,-2.2,29.88,SW,224,0.0,0.0,19,0.00,OVC,,0.00,WeatherDisplay:10.37,2013-01-16 22:46:00,
2013-01-16 16:51:00,36.0,-2.4,29.88,SW,227,0.0,0.0,19,0.00,OVC,,0.00,WeatherDisplay:10.37,2013-01-16 22:51:00,
2013-01-16 16:56:00,35.8,-2.5,29.88,SSW,212,0.0,0.0,19,0.00,OVC,,0.00,WeatherDisplay:10.37,2013-01-16 22:56:00,
2013-01-16 17:01:00,35.4,-1.8,29.88,SW,231,0.0,0.0,20,0.00,OVC,,0.00,WeatherDisplay:10.37,2013-01-16 23:01:00,
2013-01-16 17:06:00,35.2,-1.9,29.88,SW,229,0.0,0.0,20,0.00,BKN,OVC,0.00,WeatherDisplay:10.37,2013-01-16 23:06:00,
2013-01-16 17:11:00,35.1,-2.1,29.88,SSW,193,0.0,0.0,20,0.00,BKN,OVC,0.00,WeatherDisplay:10.37,2013-01-16 23:11:00,
2013-01-16 17:16:00,34.9,-2.2,29.88,SW,234,0.0,0.0,20,0.00,BKN,OVC,0.00,WeatherDisplay:10.37,2013-01-16 23:16:00,
2013-01-16 17:21:00,34.7,-2.4,29.88,SW,216,0.0,0.0,20,0.00,BKN,OVC,0.00,WeatherDisplay:10.37,2013-01-16 23:21:00,
2013-01-16 17:26:00,34.5,-0.5,29.88,SSW,197,0.0,0.0,22,0.00,BKN,OVC,0.00,WeatherDisplay:10.37,2013-01-16 23:26:00,
2013-01-16 17:31:00,34.5,-0.5,29.88,WSW,241,0.0,0.0,22,0.00,BKN,OVC,0.00,WeatherDisplay:10.37,2013-01-16 23:31:00,
2013-01-16 17:36:00,34.5,-0.5,29.88,SW,233,0.0,0.0,22,0.00,BKN,OVC,0.00,WeatherDisplay:10.37,2013-01-16 23:36:00,
2013-01-16 17:41:00,34.3,-0.6,29.88,WSW,251,0.0,0.0,22,0.00,BKN,OVC,0.00,WeatherDisplay:10.37,2013-01-16 23:41:00,
2013-01-16 17:46:00,34.2,1.9,29.88,SW,236,0.0,0.0,25,0.00,BKN,OVC,0.00,WeatherDisplay:10.37,2013-01-16 23:46:00,
2013-01-16 17:51:00,34.0,1.8,29.88,SW,224,0.0,0.0,25,0.00,BKN,OVC,0.00,WeatherDisplay:10.37,2013-01-16 23:51:00,
2013-01-16 17:56:00,34.0,1.8,29.88,SSW,209,0.0,0.0,25,0.00,BKN,OVC,0.00,WeatherDisplay:10.37,2013-01-16 23:56:00,
2013-01-16 18:01:00,33.8,3.3,29.88,SW,222,0.0,0.0,27,0.00,BKN,OVC,0.00,WeatherDisplay:10.37,2013-01-17 00:01:00,
2013-01-16 18:06:00,33.8,3.3,29.88,SW,230,0.0,0.0,27,0.00,BKN,OVC,0.00,WeatherDisplay:10.37,2013-01-17 00:06:00,
2013-01-16 18:11:00,34.0,5.7,29.91,SW,233,0.0,0.0,30,0.00,BKN,OVC,0.00,WeatherDisplay:10.37,2013-01-17 00:11:00,
2013-01-16 18:16:00,34.0,5.7,29.91,SW,231,0.0,0.0,30,0.00,BKN,OVC,0.00,WeatherDisplay:10.37,2013-01-17 00:16:00,
2013-01-16 18:21:00,34.3,6.1,29.91,South,183,0.0,0.0,30,0.00,BKN,OVC,0.00,WeatherDisplay:10.37,2013-01-17 00:21:00,
2013-01-16 18:26:00,34.5,6.2,29.91,SSW,203,0.0,0.0,30,0.00,BKN,OVC,0.00,WeatherDisplay:10.37,2013-01-17 00:26:00,
2013-01-16 18:31:00,34.7,6.4,29.91,SW,229,0.0,0.0,30,0.00,BKN,OVC,0.00,WeatherDisplay:10.37,2013-01-17 00:31:00,
2013-01-16 18:36:00,34.9,7.3,29.91,SSW,200,0.0,0.0,31,0.00,BKN,OVC,0.00,WeatherDisplay:10.37,2013-01-17 00:36:00,
2013-01-16 18:41:00,34.9,7.3,29.91,SW,229,0.0,0.0,31,0.00,BKN,OVC,0.00,WeatherDisplay:10.37,2013-01-17 00:41:00,
2013-01-16 18:46:00,35.1,7.4,29.91,SW,219,0.0,0.0,31,0.00,BKN,OVC,0.00,WeatherDisplay:10.37,2013-01-17 00:46:00,
2013-01-16 18:51:00,35.1,7.4,29.91,SSW,211,0.0,0.0,31,0.00,BKN,OVC,0.00,WeatherDisplay:10.37,2013-01-17 00:51:00,
2013-01-16 18:56:00,35.1,7.4,29.91,WSW,243,0.0,0.0,31,0.00,BKN,OVC,0.00,WeatherDisplay:10.37,2013-01-17 00:56:00,
2013-01-16 19:01:00,35.2,7.6,29.91,SW,225,0.0,0.0,31,0.00,BKN,OVC,0.00,WeatherDisplay:10.37,2013-01-17 01:01:00,
2013-01-16 19:06:00,35.2,7.6,29.91,WSW,252,0.0,0.0,31,0.00,BKN,OVC,0.00,WeatherDisplay:10.37,2013-01-17 01:06:00,
2013-01-16 19:11:00,35.2,7.6,29.91,SW,226,0.0,0.0,31,0.00,BKN,OVC,0.00,WeatherDisplay:10.37,2013-01-17 01:11:00,
2013-01-16 19:16:00,35.2,7.6,29.91,South,172,0.0,0.0,31,0.00,BKN,OVC,0.00,WeatherDisplay:10.37,2013-01-17 01:16:00,
2013-01-16 19:21:00,35.4,7.7,29.91,SSW,199,0.0,0.0,31,0.00,OVC,,0.00,WeatherDisplay:10.37,2013-01-17 01:21:00,
2013-01-16 19:26:00,35.4,7.7,29.94,SSW,198,0.0,0.0,31,0.00,OVC,,0.00,WeatherDisplay:10.37,2013-01-17 01:26:00,
2013-01-16 19:31:00,35.4,7.7,29.94,SSW,193,0.0,0.0,31,0.00,OVC,,0.00,WeatherDisplay:10.37,2013-01-17 01:31:00,
2013-01-16 19:36:00,35.6,7.2,29.94,SSE,168,0.0,0.0,30,0.00,OVC,,0.00,WeatherDisplay:10.37,2013-01-17 01:36:00,
2013-01-16 19:41:00,35.6,7.2,29.94,SW,221,0.0,0.0,30,0.00,OVC,,0.00,WeatherDisplay:10.37,2013-01-17 01:41:00,
2013-01-16 19:46:00,35.6,7.2,29.94,SW,223,0.0,0.0,30,0.00,OVC,,0.00,WeatherDisplay:10.37,2013-01-17 01:46:00,
2013-01-16 19:51:00,35.6,7.2,29.94,SSW,192,0.0,0.0,30,0.00,OVC,,0.00,WeatherDisplay:10.37,2013-01-17 01:51:00,
2013-01-16 19:56:00,35.6,7.2,29.94,SW,232,0.0,0.0,30,0.00,OVC,,0.00,WeatherDisplay:10.37,2013-01-17 01:56:00,
2013-01-16 20:01:00,35.8,7.3,29.94,SW,216,0.0,0.0,30,0.00,OVC,,0.00,WeatherDisplay:10.37,2013-01-17 02:01:00,
2013-01-16 20:06:00,35.8,7.3,29.94,SSW,195,0.0,0.0,30,0.00,OVC,,0.00,WeatherDisplay:10.37,2013-01-17 02:06:00,
2013-01-16 20:11:00,35.8,7.3,29.94,SW,221,0.0,0.0,30,0.00,OVC,,0.00,WeatherDisplay:10.37,2013-01-17 02:11:00,
2013-01-16 20:16:00,35.8,7.3,29.94,SSW,210,0.0,0.0,30,0.00,OVC,,0.00,WeatherDisplay:10.37,2013-01-17 02:16:00,
2013-01-16 20:21:00,35.8,7.3,29.94,SSW,211,0.0,0.0,30,0.00,OVC,,0.00,WeatherDisplay:10.37,2013-01-17 02:21:00,
2013-01-16 20:26:00,35.8,7.3,29.94,NW,307,0.0,0.0,30,0.00,OVC,,0.00,WeatherDisplay:10.37,2013-01-17 02:26:00,
2013-01-16 20:31:00,35.8,7.3,29.94,SW,235,0.0,0.0,30,0.00,OVC,,0.00,WeatherDisplay:10.37,2013-01-17 02:31:00,
2013-01-16 20:36:00,35.8,7.3,29.94,South,187,0.0,0.0,30,0.00,OVC,,0.00,WeatherDisplay:10.37,2013-01-17 02:36:00,
2013-01-16 20:41:00,35.8,7.3,29.94,South,180,0.0,0.0,30,0.00,OVC,,0.00,WeatherDisplay:10.37,2013-01-17 02:41:00,
2013-01-16 20:46:00,36.0,7.5,29.94,SSW,206,0.0,0.0,30,0.00,OVC,,0.00,WeatherDisplay:10.37,2013-01-17 02:46:00,
2013-01-16 20:51:00,36.0,7.5,29.94,South,176,0.0,0.0,30,0.00,OVC,,0.00,WeatherDisplay:10.37,2013-01-17 02:51:00,
2013-01-16 20:56:00,36.0,7.5,29.94,South,177,0.0,0.0,30,0.00,OVC,,0.00,WeatherDisplay:10.37,2013-01-17 02:56:00,
2013-01-16 21:01:00,36.0,7.5,29.94,WSW,253,0.0,0.0,30,0.00,OVC,,0.00,WeatherDisplay:10.37,2013-01-17 03:01:00,
2013-01-16 21:06:00,36.0,7.5,29.94,SSW,193,0.0,0.0,30,0.00,OVC,,0.00,WeatherDisplay:10.37,2013-01-17 03:06:00,
2013-01-16 21:11:00,35.8,7.3,29.94,WNW,303,0.0,0.0,30,0.00,OVC,,0.00,WeatherDisplay:10.37,2013-01-17 03:11:00,
2013-01-16 21:16:00,35.8,7.3,29.94,SSW,206,0.0,0.0,30,0.00,OVC,,0.00,WeatherDisplay:10.37,2013-01-17 03:16:00,
2013-01-16 21:21:00,35.6,7.2,29.94,WSW,239,0.0,0.0,30,0.00,OVC,,0.00,WeatherDisplay:10.37,2013-01-17 03:21:00,
2013-01-16 21:26:00,35.6,7.2,29.94,SW,234,0.0,0.0,30,0.00,OVC,,0.00,WeatherDisplay:10.37,2013-01-17 03:26:00,
2013-01-16 21:31:00,35.6,7.2,29.94,WSW,249,0.0,0.0,30,0.00,OVC,,0.00,WeatherDisplay:10.37,2013-01-17 03:31:00,
2013-01-16 21:36:00,35.6,7.2,29.94,West,279,0.0,0.0,30,0.00,OVC,,0.00,WeatherDisplay:10.37,2013-01-17 03:36:00,
2013-01-16 21:41:00,35.6,7.2,29.97,SW,215,0.0,0.0,30,0.00,OVC,,0.00,WeatherDisplay:10.37,2013-01-17 03:41:00,
2013-01-16 21:47:00,35.6,7.2,29.97,SW,221,0.0,0.0,30,0.00,OVC,,0.00,WeatherDisplay:10.37,2013-01-17 03:47:00,
2013-01-16 21:52:00,35.6,7.2,29.97,SSW,202,0.0,0.0,30,0.00,OVC,,0.00,WeatherDisplay:10.37,2013-01-17 03:52:00,
2013-01-16 21:57:00,35.6,7.2,29.97,SW,224,0.0,0.0,30,0.00,OVC,,0.00,WeatherDisplay:10.37,2013-01-17 03:57:00,
2013-01-16 22:02:00,35.8,8.0,29.97,SW,226,0.0,0.0,31,0.00,OVC,,0.00,WeatherDisplay:10.37,2013-01-17 04:02:00,
2013-01-16 22:07:00,35.8,8.0,29.97,SSW,209,0.0,0.0,31,0.00,OVC,,0.00,WeatherDisplay:10.37,2013-01-17 04:07:00,
2013-01-16 22:12:00,35.8,8.0,29.97,WNW,285,0.0,0.0,31,0.00,OVC,,0.00,WeatherDisplay:10.37,2013-01-17 04:12:00,
2013-01-16 22:17:00,35.8,8.0,29.97,WSW,242,0.0,0.0,31,0.00,OVC,,0.00,WeatherDisplay:10.37,2013-01-17 04:17:00,
2013-01-16 22:22:00,35.6,7.9,29.97,WSW,256,0.0,0.0,31,0.00,OVC,,0.00,WeatherDisplay:10.37,2013-01-17 04:22:00,
2013-01-16 22:27:00,35.8,8.0,29.97,WSW,256,0.0,0.0,31,0.00,OVC,,0.00,WeatherDisplay:10.37,2013-01-17 04:27:00,
2013-01-16 22:32:00,35.8,8.0,29.97,West,263,0.0,0.0,31,0.00,OVC,,0.00,WeatherDisplay:10.37,2013-01-17 04:32:00,
2013-01-16 22:37:00,35.6,7.9,29.97,West,266,0.0,0.0,31,0.00,OVC,,0.00,WeatherDisplay:10.37,2013-01-17 04:37:00,
2013-01-16 22:42:00,35.4,7.7,29.97,West,263,0.0,0.0,31,0.00,OVC,,0.00,WeatherDisplay:10.37,2013-01-17 04:42:00,
2013-01-16 22:47:00,35.2,8.3,29.97,West,265,0.0,0.0,32,0.00,OVC,,0.00,WeatherDisplay:10.37,2013-01-17 04:47:00,
2013-01-16 22:52:00,35.1,8.1,29.97,West,263,0.0,0.0,32,0.00,OVC,,0.00,WeatherDisplay:10.37,2013-01-17 04:52:00,
2013-01-16 22:57:00,34.9,8.0,29.97,West,265,0.0,0.0,32,0.00,OVC,,0.00,WeatherDisplay:10.37,2013-01-17 04:57:00,
2013-01-16 23:00:00,34.7,7.8,29.97,West,265,0.0,0.0,32,0.00,OVC,,0.00,WeatherDisplay:10.37,2013-01-17 05:00:00,
2013-01-16 23:02:00,34.7,7.8,29.97,West,266,0.0,0.0,32,0.00,OVC,,0.00,WeatherDisplay:10.37,2013-01-17 05:02:00,
2013-01-16 23:04:00,34.7,7.8,29.97,West,262,0.0,0.0,32,0.00,BKN,OVC,0.00,WeatherDisplay:10.37,2013-01-17 05:04:00,
2013-01-16 23:05:00,34.7,7.8,29.97,West,266,0.0,0.0,32,0.00,BKN,OVC,0.00,WeatherDisplay:10.37,2013-01-17 05:05:00,
2013-01-16 23:10:00,34.5,8.3,29.97,West,263,0.0,0.0,33,0.00,BKN,OVC,0.00,WeatherDisplay:10.37,2013-01-17 05:10:00,
2013-01-16 23:15:00,34.5,8.3,30.00,West,264,0.0,0.0,33,0.00,BKN,OVC,0.00,WeatherDisplay:10.37,2013-01-17 05:15:00,
2013-01-16 23:20:00,34.5,9.0,30.00,West,272,0.0,0.0,34,0.00,BKN,OVC,0.00,WeatherDisplay:10.37,2013-01-17 05:20:00,
2013-01-16 23:25:00,35.2,11.5,30.00,NNW,334,2.3,0.0,37,0.00,BKN,OVC,0.00,WeatherDisplay:10.37,2013-01-17 05:25:00,
2013-01-16 23:30:00,35.8,13.2,30.00,NW,315,3.5,0.0,39,0.00,BKN,OVC,0.00,WeatherDisplay:10.37,2013-01-17 05:30:00,
2013-01-16 23:35:00,36.1,14.1,30.00,NNW,341,5.8,5.8,40,0.00,BKN,OVC,0.00,WeatherDisplay:10.37,2013-01-17 05:35:00,
2013-01-16 23:40:00,36.3,14.3,30.00,West,275,9.2,9.2,40,0.00,BKN,OVC,0.00,WeatherDisplay:10.37,2013-01-17 05:40:00,
2013-01-16 23:45:00,36.5,14.4,30.00,WNW,285,4.6,0.0,40,0.00,BKN,OVC,0.00,WeatherDisplay:10.37,2013-01-17 05:45:00,
2013-01-16 23:50:00,36.5,13.9,30.00,West,278,5.8,5.8,39,0.00,BKN,OVC,0.00,WeatherDisplay:10.37,2013-01-17 05:50:00,
2013-01-16 23:55:00,36.3,13.7,30.00,NW,305,9.2,9.2,39,0.00,BKN,OVC,0.00,WeatherDisplay:10.37,2013-01-17 05:55:00,